SCP
0 0 0 0 0 0 0 0 0 0 0 0 0 0 0 0 0 0 0 0 0 0 0 0 0 0 0 0 0 0 0 0 0 0 0 0 0 0 0 0 0 0 0
0 0 0 0 0 0 0 0 0 0 0 0 0 0 0 0 0 0 0 0 0 0 0 0 0 0 0 0 0 0 0 0 0 0 0 0 0 0 0 0 0 0 0
0 0 0 0 0 0 0 0 0 0 0 0 0 0 0 0 0 0 0 0 0 0 0 0 0 0 0 0 0 0 0 0 0 0 0 0 0 0 0 0 0 0 0
0 0 0 0 0 0 0 0 0 0 0 0 0 0 0 0 0 0 0 0 0 0 0 0 0 0 0 0 0 0 0 0 0 0 0 0 0 0 0 0 0 0 0
0 0 0 0 0 0 0 0 0 0 0 0 0 0 0 0 0 0 0 0 0 0 0 0 0 0 0 0 0 0 0 0 0 0 0 0 0 0 0 0 0 0 0
0 0 0 0 0 0 0 0 0 0 0 0 0 0 0 0 0 0 0 0 0 0 0 0 0 0 0 0 0 0 0 0 0 0 0 0 0 0 0 0 0 0 0
0 0 0 0 0 0 0 0 0 0 0 0 0 0 0 0 0 0 0 0 0 0 0 0 0 0 0 0 0 0 0 0 0 0 0 0 0 0 0 0 0 0 0
0 0 0 0 0 0 0 0 0 0 0 0 0 0 0 0 0 0 0 0 0 0 0 0 0 0 0 0 0 0 0 0 0 0 0 0 0 0 0 0 0 0 0
0 0 0 0 0 0 0 0 0 0 0 0 0 0 0 0 0 0 0 0 0 0 0 0 0 0 0 0 0 0 0 0 0 0 0 0 0 0 0 0 0 0 0
0 0 0 0 0 0 0 0 0 0 0 0 0 0 0 0 0 0 0 0 0 0 0 0 0 0 0 0 0 0 0 0 0 0 0 0 0 0 0 0 0 0 0
0 0 0 0 0 0 0 0 0 0 0 0 0 0 0 0 0 0 0 0 0 0 0 0 0 0 0 0 0 0 0 0 0 0 0 0 0 0 0 0 0 0 0
0 0 0 0 0 0 0 0 0 0 0 0 0 0 0 0 0 0 0 0 0 0 0 0 0 0 0 0 0 0 0 0 0 0 0 0 0 0 0 0 0 0 0
0 0 0 0 0 0 0 0 0 0 0 0 0 0 0 0 0 0 0 0 0 0 0 0 0 0 0 0 0 0 0 0 0 0 0 0 0 0 0 0 0 0 0
0 0 0 0 0 0 0 0 0 0 0 0 0 0 0 0 0 0 0 0 0 0 0 0 0 0 0 0 0 0 0 0 0 0 0 0 0 0 0 0 0 0 0
0 0 0 0 0 0 0 0 0 0 0 0 0 0 0 0 0 0 0 0 0 0 0 0 0 0 0 0 0 0 0 0 0 0 0 0 0 0 0 0 0 0 0
0 0 0 0 0 0 0 0 0 0 0 0 0 0 0 0 0 0 0 0 0 0 0 0 0 0 0 0 0 0 0 0 0 0 0 0 0 0 0 0 0 0 0
0 0 0 0 0 0 0 0 0 0 0 0 0 0 0 0 0 0 0 0 0 0 0 0 0 0 0 0 0 0 0 0 0 0 0 0 0 0 0 0 0 0 0
0 0 0 0 0 0 0 0 0 0 0 0 0 0 0 0 0 0 0 0 0 0 0 0 0 0 0 0 0 0 0 0 0 0 0 0 0 0 0 0 0 0 0
0 0 0 0 0 0 0 0 0 0 0 0 0 0 0 0 0 0 0 0 0 0 0 0 0 0 0 0 0 0 0 0 0 0 0 0 0 0 0 0 0 0 0
0 0 0 0 0 0 0 0 0 0 0 0 0 0 0 0 0 0 0 0 0 0 0 0 0 0 0 0 0 0 0 0 0 0 0 0 0 0 0 0 0 0 0
0 0 0 0 0 0 0 0 0 0 0 0 0 0 0 0 0 0 0 0 0 0 0 0 0 0 0 0 0 0 0 0 0 0 0 0 0 0 0 0 0 0 0
0 0 0 0 0 0 0 0 0 0 0 0 0 0 0 0 0 0 0 0 0 0 0 0 0 0 0 0 0 0 0 0 0 0 0 0 0 0 0 0 0 0 0
0 0 0 0 0 0 0 0 0 0 0 0 0 0 0 0 0 0 0 0 0 0 0 0 0 0 0 0 0 0 0 0 0 0 0 0 0 0 0 0 0 0 0
0 0 0 0 0 0 0 0 0 0 0 0 0 0 0 0 0 0 0 0 0 0 0 0 0 0 0 0 0 0 0 0 0 0 0 0 0 0 0 0 0 0 0
0 0 0 0 0 0 0 0 0 0 0 0 0 0 0 0 0 0 0 0 0 0 0 0 0 0 0 0 0 0 0 0 0 0 0 0 0 0 0 0 0 0 0
0 0 0 0 0 0 0 0 0 0 0 0 0 0 0 0 0 0 0 0 0 0 0 0 0 0 0 0 0 0 0 0 0 0 0 0 0 0 0 0 0 0 0
Wind_Speed_500mb
28 29 30 32 33 34 33 32 32 33 30 30 31 32 32 32 32 33 33 32 30 26 22 19 19 23 23 19 21 22 20 24 38 41 33 30 27 31 29 29 33 38 39
26 27 27 30 30 30 30 27 26 24 27 26 30 32 33 33 31 31 30 28 27 23 20 17 16 16 14 15 17 18 16 19 31 40 29 29 27 29 33 34 32 32 35
23 26 26 28 30 29 28 27 25 24 24 25 27 29 29 29 30 28 27 26 24 24 24 24 23 20 16 17 16 16 16 20 25 35 37 30 30 30 32 29 29 30 33
20 23 26 28 31 30 28 27 26 25 26 26 25 25 26 29 28 26 26 26 28 29 30 31 30 28 25 25 23 23 25 27 30 34 35 34 33 31 34 40 34 29 30
22 24 23 29 31 31 30 29 29 29 27 27 26 26 27 26 25 27 28 29 31 32 33 35 34 33 32 31 32 30 32 33 34 34 35 35 32 34 35 38 44 45 34
23 25 26 26 29 32 34 33 31 32 32 33 29 28 28 29 28 31 33 35 37 40 40 38 40 40 37 37 39 38 39 39 39 38 39 37 36 35 39 38 41 47 45
24 25 26 27 28 31 34 38 37 36 38 38 36 37 35 34 33 37 39 43 46 47 46 45 45 46 44 46 44 46 47 45 46 43 47 43 42 39 40 42 40 42 45
22 23 26 28 30 32 35 37 38 41 44 45 45 46 47 45 44 46 47 52 55 54 53 52 52 51 51 49 50 52 54 51 51 48 52 50 45 43 43 44 46 47 48
18 20 24 26 28 30 33 35 36 41 44 47 50 52 55 56 54 54 57 60 63 64 62 61 59 58 56 51 54 58 60 57 55 49 54 53 50 48 47 48 47 47 52
16 17 20 23 24 26 28 30 30 34 38 41 44 48 53 57 56 58 61 65 70 72 71 70 67 65 61 58 59 59 66 63 59 52 54 57 54 52 50 50 48 51 47
15 16 17 19 20 22 23 25 25 27 31 32 36 37 41 44 47 50 55 60 66 70 74 75 76 72 66 63 63 65 67 62 63 59 57 58 59 56 53 51 51 51 50
14 15 17 18 19 20 20 21 22 24 25 26 27 28 28 31 34 36 38 45 49 56 63 65 68 68 67 65 66 68 65 62 62 63 63 63 62 57 52 53 53 52 50
13 13 15 16 18 18 19 18 18 20 21 21 22 23 24 24 26 26 26 27 30 37 44 47 48 50 52 53 58 61 61 61 61 61 66 66 62 58 54 54 53 53 53
13 14 14 14 15 17 19 19 18 17 17 18 20 20 21 21 18 19 21 24 26 30 33 37 39 43 44 45 51 56 57 58 54 54 59 61 61 61 55 53 52 51 52
15 16 15 15 16 16 18 18 16 17 17 18 18 20 22 22 21 22 24 27 30 32 35 39 46 45 44 39 36 39 48 54 59 59 59 59 59 58 56 52 51 51 55
14 15 16 16 18 18 17 17 20 19 18 16 16 16 22 23 21 21 22 24 25 26 29 33 38 34 34 36 38 37 36 37 44 50 56 57 57 56 54 51 54 53 53
17 18 18 18 19 19 20 18 14 19 20 19 18 18 20 22 22 23 23 22 22 20 20 23 27 30 34 34 34 35 36 37 39 41 44 46 49 52 54 53 49 48 47
20 20 21 21 21 21 22 22 22 21 20 21 24 25 25 26 28 31 31 29 27 27 26 25 26 27 29 32 35 39 42 45 47 48 50 51 53 54 54 51 48 47 47
23 24 25 26 26 26 27 28 29 30 31 31 29 29 32 32 32 34 35 36 35 33 32 32 33 33 33 34 35 35 36 36 36 37 39 40 41 42 43 42 42 41 41
31 31 32 33 33 34 35 36 37 39 40 40 41 38 40 43 40 38 39 40 41 41 40 40 38 39 40 40 41 41 41 39 37 36 35 35 33 33 32 31 30 28 28
40 40 41 44 43 44 46 47 48 49 51 51 51 46 46 52 52 50 49 47 47 47 48 48 48 47 45 45 46 47 47 46 43 40 37 36 34 34 33 32 30 29 30
48 48 50 52 53 54 55 57 58 60 61 63 62 58 54 56 59 60 59 56 53 52 53 55 55 55 53 52 50 51 52 51 49 44 43 41 38 38 36 34 32 29 27
54 57 59 60 63 65 66 67 68 68 69 70 70 69 67 66 64 63 64 62 61 59 57 58 59 59 60 59 58 57 57 55 50 46 49 48 44 41 39 37 33 30 28
64 67 70 73 74 75 76 76 76 76 75 75 75 75 74 71 71 70 67 64 64 63 63 64 64 64 64 65 65 62 60 57 56 53 52 53 50 46 44 42 38 34 32
74 77 80 82 83 83 84 83 82 79 79 79 78 76 74 73 72 70 67 66 66 65 64 66 69 69 68 67 67 65 62 57 58 57 56 56 55 52 49 46 42 39 37
80 82 84 84 86 85 84 84 83 81 79 76 74 73 72 70 69 67 64 63 64 66 69 70 70 69 67 67 64 62 60 56 53 52 52 53 56 56 54 50 45 42 38
Wind_Direction_500mb
259 262 266 268 266 267 268 268 269 268 265 265 266 261 255 251 249 247 247 248 250 250 248 252 259 258 255 256 248 245 247 261 278 295 315 332 340 339 348 346 334 325 319
262 262 262 265 264 265 263 261 262 263 267 266 260 259 255 250 248 246 244 245 244 237 234 238 246 254 257 252 245 243 248 262 279 292 316 329 340 342 346 349 346 337 325
265 262 260 261 263 262 260 258 258 259 264 268 268 262 253 247 245 244 244 243 236 228 231 239 249 257 260 259 250 248 256 262 274 290 304 322 331 336 340 345 351 347 343
272 268 260 258 260 263 264 263 260 258 260 261 263 263 256 251 249 248 246 240 233 235 242 250 251 255 256 259 261 262 266 270 276 284 297 307 315 325 329 334 340 351 349
272 269 268 262 261 261 262 263 265 265 259 258 259 261 259 259 259 254 246 237 241 246 248 251 255 258 260 261 264 266 267 268 272 280 286 296 307 312 320 327 328 332 341
278 273 268 266 265 261 260 259 260 264 264 259 259 262 263 261 256 249 246 248 250 252 254 258 261 262 263 265 266 264 264 266 269 272 278 283 295 303 309 316 320 324 332
274 271 268 266 265 264 263 264 264 261 263 267 265 264 262 257 251 249 252 254 255 257 260 260 261 264 265 265 266 268 267 266 268 270 273 278 287 297 299 305 309 310 312
275 275 275 273 271 268 266 265 266 268 267 265 265 265 264 260 255 255 255 257 259 259 260 262 263 265 265 266 266 266 266 267 266 269 273 279 283 288 291 294 299 303 305
282 282 281 279 276 275 273 271 269 268 267 268 268 265 264 263 260 257 256 257 259 262 263 264 265 267 268 268 266 267 268 267 267 267 269 273 277 280 283 287 293 299 303
292 291 289 286 284 281 278 276 273 273 273 270 269 268 268 267 265 261 259 260 261 263 264 266 266 266 268 268 266 265 268 269 272 268 265 269 271 273 277 280 284 287 289
306 304 300 297 295 292 290 287 284 281 280 278 276 274 273 272 269 264 261 261 262 265 267 268 269 268 265 264 264 264 265 272 273 271 265 264 267 270 273 275 278 278 279
314 314 310 308 306 303 300 296 296 294 290 287 286 287 284 280 278 275 270 266 266 266 269 271 272 273 270 262 258 260 264 266 267 268 268 267 268 271 273 274 277 279 277
324 320 316 315 315 315 312 312 310 303 299 296 295 297 296 292 287 288 285 278 274 272 275 279 280 280 280 276 264 258 259 259 257 259 264 268 272 274 274 274 275 276 278
330 323 316 318 316 317 320 324 322 311 303 301 305 306 306 306 302 294 288 284 280 278 282 283 284 282 279 278 269 264 259 254 254 256 262 267 269 273 273 273 274 277 275
336 327 327 328 326 326 326 325 320 312 306 304 301 304 302 308 309 305 301 293 286 278 278 281 284 283 282 278 280 270 265 258 253 255 262 266 268 270 274 274 275 274 272
347 340 338 337 334 333 334 324 320 314 310 305 299 288 294 299 301 307 307 303 304 302 286 273 281 284 282 273 273 275 273 269 265 263 262 263 265 267 270 273 277 275 273
357 349 345 343 338 334 330 328 321 310 311 311 310 304 304 304 307 314 319 318 314 314 309 300 292 286 277 276 275 272 270 267 266 265 264 262 262 264 269 272 272 273 270
347 346 340 336 332 327 324 320 317 312 301 295 299 299 300 299 305 306 309 311 310 309 306 303 299 294 289 284 278 275 273 271 268 266 265 265 265 267 269 270 269 267 267
324 324 323 321 319 317 313 310 308 305 302 298 294 292 295 296 295 294 295 298 299 298 297 295 293 290 288 287 286 284 281 279 276 273 269 267 266 266 266 266 266 265 264
303 304 305 305 304 304 302 301 299 296 294 294 293 294 291 291 290 289 288 289 291 293 294 293 291 288 287 284 282 281 280 278 276 274 272 270 269 267 265 264 262 260 259
293 292 293 296 297 296 296 295 294 292 292 290 290 289 288 288 289 289 289 289 291 291 290 289 289 289 288 285 281 278 276 274 272 270 268 266 262 261 260 259 258 255 253
290 289 288 289 291 291 291 291 291 291 291 291 291 289 285 281 283 285 286 286 286 285 285 286 286 286 285 284 280 275 272 269 267 265 264 262 259 257 255 255 253 250 247
286 287 287 288 289 289 289 289 289 289 289 289 289 287 287 286 285 284 283 283 283 283 282 281 281 281 281 281 278 274 270 268 266 260 256 256 255 254 252 252 249 243 239
286 286 287 287 287 287 287 287 287 286 285 285 285 286 285 285 285 286 285 284 280 279 278 280 280 280 278 278 277 274 270 266 262 257 252 252 251 249 248 246 244 239 235
286 286 286 286 286 285 285 284 284 283 283 284 285 285 285 286 285 285 284 282 281 279 279 280 281 281 279 277 275 272 270 264 259 256 250 247 246 245 243 242 239 237 236
291 290 288 287 285 284 283 283 282 282 283 285 287 287 287 287 287 287 286 285 284 284 284 283 282 280 277 274 270 267 264 259 255 252 249 245 242 240 239 238 235 234 232
Wind_Speed_850mb
28 29 30 32 33 34 33 32 32 33 30 30 31 32 32 32 32 33 33 32 30 26 22 19 19 23 23 19 21 22 20 24 38 41 33 30 27 31 29 29 33 38 39
26 27 27 30 30 30 30 27 26 24 27 26 30 32 33 33 31 31 30 28 27 23 20 17 16 16 14 15 17 18 16 19 31 40 29 29 27 29 33 34 32 32 35
23 26 26 28 30 29 28 27 25 24 24 25 27 29 29 29 30 28 27 26 24 24 24 24 23 20 16 17 16 16 16 20 25 35 37 30 30 30 32 29 29 30 33
20 23 26 28 31 30 28 27 26 25 26 26 25 25 26 29 28 26 26 26 28 29 30 31 30 28 25 25 23 23 25 27 30 34 35 34 33 31 34 40 34 29 30
22 24 23 29 31 31 30 29 29 29 27 27 26 26 27 26 25 27 28 29 31 32 33 35 34 33 32 31 32 30 32 33 34 34 35 35 32 34 35 38 44 45 34
23 25 26 26 29 32 34 33 31 32 32 33 29 28 28 29 28 31 33 35 37 40 40 38 40 40 37 37 39 38 39 39 39 38 39 37 36 35 39 38 41 47 45
24 25 26 27 28 31 34 38 37 36 38 38 36 37 35 34 33 37 39 43 46 47 46 45 45 46 44 46 44 46 47 45 46 43 47 43 42 39 40 42 40 42 45
22 23 26 28 30 32 35 37 38 41 44 45 45 46 47 45 44 46 47 52 55 54 53 52 52 51 51 49 50 52 54 51 51 48 52 50 45 43 43 44 46 47 48
18 20 24 26 28 30 33 35 36 41 44 47 50 52 55 56 54 54 57 60 63 64 62 61 59 58 56 51 54 58 60 57 55 49 54 53 50 48 47 48 47 47 52
16 17 20 23 24 26 28 30 30 34 38 41 44 48 53 57 56 58 61 65 70 72 71 70 67 65 61 58 59 59 66 63 59 52 54 57 54 52 50 50 48 51 47
15 16 17 19 20 22 23 25 25 27 31 32 36 37 41 44 47 50 55 60 66 70 74 75 76 72 66 63 63 65 67 62 63 59 57 58 59 56 53 51 51 51 50
14 15 17 18 19 20 20 21 22 24 25 26 27 28 28 31 34 36 38 45 49 56 63 65 68 68 67 65 66 68 65 62 62 63 63 63 62 57 52 53 53 52 50
13 13 15 16 18 18 19 18 18 20 21 21 22 23 24 24 26 26 26 27 30 37 44 47 48 50 52 53 58 61 61 61 61 61 66 66 62 58 54 54 53 53 53
13 14 14 14 15 17 19 19 18 17 17 18 20 20 21 21 18 19 21 24 26 30 33 37 39 43 44 45 51 56 57 58 54 54 59 61 61 61 55 53 52 51 52
15 16 15 15 16 16 18 18 16 17 17 18 18 20 22 22 21 22 24 27 30 32 35 39 46 45 44 39 36 39 48 54 59 59 59 59 59 58 56 52 51 51 55
14 15 16 16 18 18 17 17 20 19 18 16 16 16 22 23 21 21 22 24 25 26 29 33 38 34 34 36 38 37 36 37 44 50 56 57 57 56 54 51 54 53 53
17 18 18 18 19 19 20 18 14 19 20 19 18 18 20 22 22 23 23 22 22 20 20 23 27 30 34 34 34 35 36 37 39 41 44 46 49 52 54 53 49 48 47
20 20 21 21 21 21 22 22 22 21 20 21 24 25 25 26 28 31 31 29 27 27 26 25 26 27 29 32 35 39 42 45 47 48 50 51 53 54 54 51 48 47 47
23 24 25 26 26 26 27 28 29 30 31 31 29 29 32 32 32 34 35 36 35 33 32 32 33 33 33 34 35 35 36 36 36 37 39 40 41 42 43 42 42 41 41
31 31 32 33 33 34 35 36 37 39 40 40 41 38 40 43 40 38 39 40 41 41 40 40 38 39 40 40 41 41 41 39 37 36 35 35 33 33 32 31 30 28 28
40 40 41 44 43 44 46 47 48 49 51 51 51 46 46 52 52 50 49 47 47 47 48 48 48 47 45 45 46 47 47 46 43 40 37 36 34 34 33 32 30 29 30
48 48 50 52 53 54 55 57 58 60 61 63 62 58 54 56 59 60 59 56 53 52 53 55 55 55 53 52 50 51 52 51 49 44 43 41 38 38 36 34 32 29 27
54 57 59 60 63 65 66 67 68 68 69 70 70 69 67 66 64 63 64 62 61 59 57 58 59 59 60 59 58 57 57 55 50 46 49 48 44 41 39 37 33 30 28
64 67 70 73 74 75 76 76 76 76 75 75 75 75 74 71 71 70 67 64 64 63 63 64 64 64 64 65 65 62 60 57 56 53 52 53 50 46 44 42 38 34 32
74 77 80 82 83 83 84 83 82 79 79 79 78 76 74 73 72 70 67 66 66 65 64 66 69 69 68 67 67 65 62 57 58 57 56 56 55 52 49 46 42 39 37
80 82 84 84 86 85 84 84 83 81 79 76 74 73 72 70 69 67 64 63 64 66 69 70 70 69 67 67 64 62 60 56 53 52 52 53 56 56 54 50 45 42 38
Wind_Direction_850mb
259 262 266 268 266 267 268 268 269 268 265 265 266 261 255 251 249 247 247 248 250 250 248 252 259 258 255 256 248 245 247 261 278 295 315 332 340 339 348 346 334 325 319
262 262 262 265 264 265 263 261 262 263 267 266 260 259 255 250 248 246 244 245 244 237 234 238 246 254 257 252 245 243 248 262 279 292 316 329 340 342 346 349 346 337 325
265 262 260 261 263 262 260 258 258 259 264 268 268 262 253 247 245 244 244 243 236 228 231 239 249 257 260 259 250 248 256 262 274 290 304 322 331 336 340 345 351 347 343
272 268 260 258 260 263 264 263 260 258 260 261 263 263 256 251 249 248 246 240 233 235 242 250 251 255 256 259 261 262 266 270 276 284 297 307 315 325 329 334 340 351 349
272 269 268 262 261 261 262 263 265 265 259 258 259 261 259 259 259 254 246 237 241 246 248 251 255 258 260 261 264 266 267 268 272 280 286 296 307 312 320 327 328 332 341
278 273 268 266 265 261 260 259 260 264 264 259 259 262 263 261 256 249 246 248 250 252 254 258 261 262 263 265 266 264 264 266 269 272 278 283 295 303 309 316 320 324 332
274 271 268 266 265 264 263 264 264 261 263 267 265 264 262 257 251 249 252 254 255 257 260 260 261 264 265 265 266 268 267 266 268 270 273 278 287 297 299 305 309 310 312
275 275 275 273 271 268 266 265 266 268 267 265 265 265 264 260 255 255 255 257 259 259 260 262 263 265 265 266 266 266 266 267 266 269 273 279 283 288 291 294 299 303 305
282 282 281 279 276 275 273 271 269 268 267 268 268 265 264 263 260 257 256 257 259 262 263 264 265 267 268 268 266 267 268 267 267 267 269 273 277 280 283 287 293 299 303
292 291 289 286 284 281 278 276 273 273 273 270 269 268 268 267 265 261 259 260 261 263 264 266 266 266 268 268 266 265 268 269 272 268 265 269 271 273 277 280 284 287 289
306 304 300 297 295 292 290 287 284 281 280 278 276 274 273 272 269 264 261 261 262 265 267 268 269 268 265 264 264 264 265 272 273 271 265 264 267 270 273 275 278 278 279
314 314 310 308 306 303 300 296 296 294 290 287 286 287 284 280 278 275 270 266 266 266 269 271 272 273 270 262 258 260 264 266 267 268 268 267 268 271 273 274 277 279 277
324 320 316 315 315 315 312 312 310 303 299 296 295 297 296 292 287 288 285 278 274 272 275 279 280 280 280 276 264 258 259 259 257 259 264 268 272 274 274 274 275 276 278
330 323 316 318 316 317 320 324 322 311 303 301 305 306 306 306 302 294 288 284 280 278 282 283 284 282 279 278 269 264 259 254 254 256 262 267 269 273 273 273 274 277 275
336 327 327 328 326 326 326 325 320 312 306 304 301 304 302 308 309 305 301 293 286 278 278 281 284 283 282 278 280 270 265 258 253 255 262 266 268 270 274 274 275 274 272
347 340 338 337 334 333 334 324 320 314 310 305 299 288 294 299 301 307 307 303 304 302 286 273 281 284 282 273 273 275 273 269 265 263 262 263 265 267 270 273 277 275 273
357 349 345 343 338 334 330 328 321 310 311 311 310 304 304 304 307 314 319 318 314 314 309 300 292 286 277 276 275 272 270 267 266 265 264 262 262 264 269 272 272 273 270
347 346 340 336 332 327 324 320 317 312 301 295 299 299 300 299 305 306 309 311 310 309 306 303 299 294 289 284 278 275 273 271 268 266 265 265 265 267 269 270 269 267 267
324 324 323 321 319 317 313 310 308 305 302 298 294 292 295 296 295 294 295 298 299 298 297 295 293 290 288 287 286 284 281 279 276 273 269 267 266 266 266 266 266 265 264
303 304 305 305 304 304 302 301 299 296 294 294 293 294 291 291 290 289 288 289 291 293 294 293 291 288 287 284 282 281 280 278 276 274 272 270 269 267 265 264 262 260 259
293 292 293 296 297 296 296 295 294 292 292 290 290 289 288 288 289 289 289 289 291 291 290 289 289 289 288 285 281 278 276 274 272 270 268 266 262 261 260 259 258 255 253
290 289 288 289 291 291 291 291 291 291 291 291 291 289 285 281 283 285 286 286 286 285 285 286 286 286 285 284 280 275 272 269 267 265 264 262 259 257 255 255 253 250 247
286 287 287 288 289 289 289 289 289 289 289 289 289 287 287 286 285 284 283 283 283 283 282 281 281 281 281 281 278 274 270 268 266 260 256 256 255 254 252 252 249 243 239
286 286 287 287 287 287 287 287 287 286 285 285 285 286 285 285 285 286 285 284 280 279 278 280 280 280 278 278 277 274 270 266 262 257 252 252 251 249 248 246 244 239 235
286 286 286 286 286 285 285 284 284 283 283 284 285 285 285 286 285 285 284 282 281 279 279 280 281 281 279 277 275 272 270 264 259 256 250 247 246 245 243 242 239 237 236
291 290 288 287 285 284 283 283 282 282 283 285 287 287 287 287 287 287 286 285 284 284 284 283 282 280 277 274 270 267 264 259 255 252 249 245 242 240 239 238 235 234 232